Time,TemperatureF,DewpointF,PressureIn,WindDirection,WindDirectionDegrees,WindSpeedMPH,WindSpeedGustMPH,Humidity,HourlyPrecipIn,Conditions,Clouds,dailyrainin,SoftwareType,DateUTC
2013-03-25 00:01:00,30.3,25.0,29.73,ENE,60,2.0,-999.0,79,-99.99,,,0.00,weatherlink.com 1.10,2013-03-25 04:01:00,
2013-03-25 00:16:00,30.6,25.0,29.73,East,80,4.0,-999.0,78,-99.99,,,0.00,weatherlink.com 1.10,2013-03-25 04:16:00,
2013-03-25 00:31:00,30.7,25.0,29.72,ENE,58,3.0,-999.0,78,-99.99,,,0.00,weatherlink.com 1.10,2013-03-25 04:31:00,
2013-03-25 00:46:00,30.7,25.0,29.71,ENE,74,2.0,-999.0,78,-99.99,,,0.00,weatherlink.com 1.10,2013-03-25 04:46:00,
2013-03-25 01:01:00,30.5,25.0,29.70,East,81,3.0,-999.0,79,-99.99,,,0.00,weatherlink.com 1.10,2013-03-25 05:01:00,
2013-03-25 01:16:00,30.4,25.0,29.70,ENE,76,2.0,-999.0,79,-99.99,,,0.00,weatherlink.com 1.10,2013-03-25 05:16:00,
2013-03-25 01:31:00,30.2,24.0,29.70,East,91,2.0,-999.0,79,-99.99,,,0.00,weatherlink.com 1.10,2013-03-25 05:31:00,
2013-03-25 01:46:00,29.9,24.0,29.70,ENE,74,3.0,-999.0,80,-99.99,,,0.00,weatherlink.com 1.10,2013-03-25 05:46:00,
2013-03-25 02:01:00,29.6,24.0,29.69,ENE,75,1.0,-999.0,81,-99.99,,,0.00,weatherlink.com 1.10,2013-03-25 06:01:00,
2013-03-25 02:31:00,29.3,24.0,29.68,ENE,67,1.0,-999.0,81,-99.99,,,0.00,weatherlink.com 1.10,2013-03-25 06:31:00,
2013-03-25 02:46:00,29.3,24.0,29.68,ENE,59,1.0,-999.0,81,-99.99,,,0.00,weatherlink.com 1.10,2013-03-25 06:46:00,
2013-03-25 03:16:00,29.5,25.0,29.67,NE,55,1.0,-999.0,82,-99.99,,,0.00,weatherlink.com 1.10,2013-03-25 07:16:00,
2013-03-25 03:31:00,29.6,24.0,29.67,NE,44,1.0,-999.0,81,-99.99,,,0.00,weatherlink.com 1.10,2013-03-25 07:31:00,
2013-03-25 04:01:00,29.6,25.0,29.66,NE,40,1.0,-999.0,82,-99.99,,,0.00,weatherlink.com 1.10,2013-03-25 08:01:00,
2013-03-25 04:16:00,29.7,25.0,29.65,ENE,57,1.0,-999.0,82,-99.99,,,0.00,weatherlink.com 1.10,2013-03-25 08:16:00,
2013-03-25 04:31:00,29.7,25.0,29.65,ENE,72,2.0,-999.0,83,-99.99,,,0.00,weatherlink.com 1.10,2013-03-25 08:31:00,
2013-03-25 04:46:00,29.7,25.0,29.66,NE,49,1.0,-999.0,83,-99.99,,,0.00,weatherlink.com 1.10,2013-03-25 08:46:00,
2013-03-25 05:01:00,29.7,25.0,29.66,ENE,61,1.0,-999.0,83,-99.99,,,0.00,weatherlink.com 1.10,2013-03-25 09:01:00,
2013-03-25 05:16:00,29.7,25.0,29.66,ENE,63,0.0,-999.0,83,-99.99,,,0.00,weatherlink.com 1.10,2013-03-25 09:16:00,
2013-03-25 05:31:00,29.6,25.0,29.66,NE,42,1.0,-999.0,83,-99.99,,,0.00,weatherlink.com 1.10,2013-03-25 09:31:00,
2013-03-25 05:46:00,29.6,25.0,29.66,ENE,63,1.0,-999.0,83,-99.99,,,0.00,weatherlink.com 1.10,2013-03-25 09:46:00,
2013-03-25 06:01:00,29.6,25.0,29.66,NE,47,1.0,-999.0,82,-99.99,,,0.00,weatherlink.com 1.10,2013-03-25 10:01:00,
2013-03-25 06:16:00,29.5,25.0,29.66,ENE,59,1.0,-999.0,82,-99.99,,,0.00,weatherlink.com 1.10,2013-03-25 10:16:00,
2013-03-25 06:31:00,29.4,25.0,29.66,ENE,74,0.0,-999.0,82,-99.99,,,0.00,weatherlink.com 1.10,2013-03-25 10:31:00,
2013-03-25 06:46:00,29.2,24.0,29.67,ENE,65,2.0,-999.0,82,-99.99,,,0.00,weatherlink.com 1.10,2013-03-25 10:46:00,
2013-03-25 07:01:00,29.2,24.0,29.67,NE,38,1.0,-999.0,82,-99.99,,,0.00,weatherlink.com 1.10,2013-03-25 11:01:00,
2013-03-25 07:31:00,29.2,24.0,29.66,NE,45,2.0,-999.0,81,-99.99,,,0.00,weatherlink.com 1.10,2013-03-25 11:31:00,
2013-03-25 07:46:00,29.3,24.0,29.66,ENE,59,3.0,-999.0,81,-99.99,,,0.00,weatherlink.com 1.10,2013-03-25 11:46:00,
2013-03-25 08:01:00,29.5,24.0,29.66,NE,34,5.0,-999.0,80,-99.99,,,0.00,weatherlink.com 1.10,2013-03-25 12:01:00,
2013-03-25 08:16:00,29.8,24.0,29.66,NE,46,2.0,-999.0,80,-99.99,,,0.00,weatherlink.com 1.10,2013-03-25 12:16:00,
2013-03-25 08:31:00,30.1,24.0,29.66,ENE,61,2.0,-999.0,79,-99.99,,,0.00,weatherlink.com 1.10,2013-03-25 12:31:00,
2013-03-25 08:46:00,30.6,25.0,29.65,NE,40,2.0,-999.0,79,-99.99,,,0.00,weatherlink.com 1.10,2013-03-25 12:46:00,
2013-03-25 09:31:00,31.9,25.0,29.65,NE,46,6.0,-999.0,76,-99.99,,,0.00,weatherlink.com 1.10,2013-03-25 13:31:00,
2013-03-25 09:46:00,32.4,25.0,29.64,ENE,63,3.0,-999.0,75,-99.99,,,0.00,weatherlink.com 1.10,2013-03-25 13:46:00,
2013-03-25 10:01:00,32.8,25.0,29.64,East,84,0.0,-999.0,74,-99.99,,,0.00,weatherlink.com 1.10,2013-03-25 14:01:00,
2013-03-25 10:16:00,33.3,26.0,29.64,East,82,1.0,-999.0,75,-99.99,,,0.00,weatherlink.com 1.10,2013-03-25 14:16:00,
2013-03-25 10:31:00,34.4,26.0,29.64,NE,56,1.0,-999.0,71,-99.99,,,0.00,weatherlink.com 1.10,2013-03-25 14:31:00,
2013-03-25 10:46:00,35.0,26.0,29.63,ESE,103,2.0,-999.0,70,-99.99,,,0.00,weatherlink.com 1.10,2013-03-25 14:46:00,
2013-03-25 11:01:00,35.3,26.0,29.64,NE,46,2.0,-999.0,69,-99.99,,,0.00,weatherlink.com 1.10,2013-03-25 15:01:00,
2013-03-25 11:16:00,35.2,26.0,29.64,ENE,67,3.0,-999.0,69,-99.99,,,0.00,weatherlink.com 1.10,2013-03-25 15:16:00,
2013-03-25 11:31:00,35.2,26.0,29.64,ESE,111,4.0,-999.0,68,-99.99,,,0.00,weatherlink.com 1.10,2013-03-25 15:31:00,
2013-03-25 11:46:00,35.3,26.0,29.63,ESE,103,2.0,-999.0,69,-99.99,,,0.00,weatherlink.com 1.10,2013-03-25 15:46:00,
2013-03-25 12:16:00,35.9,26.0,29.63,ESE,109,1.0,-999.0,68,-99.99,,,0.00,weatherlink.com 1.10,2013-03-25 16:16:00,
2013-03-25 12:31:00,36.1,26.0,29.63,ENE,65,4.0,-999.0,67,-99.99,,,0.00,weatherlink.com 1.10,2013-03-25 16:31:00,
2013-03-25 12:46:00,36.3,26.0,29.63,ENE,74,0.0,-999.0,67,-99.99,,,0.00,weatherlink.com 1.10,2013-03-25 16:46:00,
2013-03-25 13:01:00,36.6,27.0,29.63,NE,51,2.0,-999.0,67,-99.99,,,0.00,weatherlink.com 1.10,2013-03-25 17:01:00,
2013-03-25 13:16:00,37.0,27.0,29.63,ENE,64,1.0,-999.0,67,-99.99,,,0.00,weatherlink.com 1.10,2013-03-25 17:16:00,
2013-03-25 13:46:00,37.7,27.0,29.62,ENE,67,5.0,-999.0,65,-99.99,,,0.00,weatherlink.com 1.10,2013-03-25 17:46:00,
2013-03-25 14:01:00,38.0,27.0,29.62,NNE,13,0.0,-999.0,64,-99.99,,,0.00,weatherlink.com 1.10,2013-03-25 18:01:00,
2013-03-25 14:16:00,38.3,27.0,29.62,NNE,30,6.0,-999.0,64,-99.99,,,0.00,weatherlink.com 1.10,2013-03-25 18:16:00,
2013-03-25 14:31:00,38.4,29.0,29.61,NE,43,3.0,-999.0,68,-99.99,,,0.00,weatherlink.com 1.10,2013-03-25 18:31:00,
2013-03-25 14:46:00,38.1,29.0,29.61,NNW,337,4.0,-999.0,69,-99.99,,,0.00,weatherlink.com 1.10,2013-03-25 18:46:00,
2013-03-25 15:01:00,38.1,28.0,29.61,NE,38,2.0,-999.0,68,-99.99,,,0.00,weatherlink.com 1.10,2013-03-25 19:01:00,
2013-03-25 15:16:00,38.2,29.0,29.61,NE,36,4.0,-999.0,69,-99.99,,,0.00,weatherlink.com 1.10,2013-03-25 19:16:00,
2013-03-25 15:31:00,38.7,29.0,29.61,NNW,340,3.0,-999.0,68,-99.99,,,0.00,weatherlink.com 1.10,2013-03-25 19:31:00,
2013-03-25 16:01:00,38.3,30.0,29.62,NNE,17,4.0,-999.0,71,-99.99,,,0.00,weatherlink.com 1.10,2013-03-25 20:01:00,
2013-03-25 16:16:00,37.9,28.0,29.62,NNE,17,8.0,-999.0,68,-99.99,,,0.00,weatherlink.com 1.10,2013-03-25 20:16:00,
2013-03-25 16:31:00,38.0,27.0,29.63,NNE,17,4.0,-999.0,66,-99.99,,,0.00,weatherlink.com 1.10,2013-03-25 20:31:00,
2013-03-25 16:46:00,37.5,26.0,29.63,ENE,59,4.0,-999.0,64,-99.99,,,0.00,weatherlink.com 1.10,2013-03-25 20:46:00,
2013-03-25 17:16:00,37.3,27.0,29.64,ENE,78,5.0,-999.0,66,-99.99,,,0.00,weatherlink.com 1.10,2013-03-25 21:16:00,
2013-03-25 17:31:00,37.1,27.0,29.64,NNE,33,10.0,-999.0,66,-99.99,,,0.00,weatherlink.com 1.10,2013-03-25 21:31:00,
2013-03-25 17:46:00,37.1,27.0,29.65,NNE,21,5.0,-999.0,68,-99.99,,,0.00,weatherlink.com 1.10,2013-03-25 21:46:00,
2013-03-25 18:16:00,36.6,28.0,29.66,NE,49,3.0,-999.0,72,-99.99,,,0.00,weatherlink.com 1.10,2013-03-25 22:16:00,
2013-03-25 18:31:00,36.2,29.0,29.67,North,9,2.0,-999.0,74,-99.99,,,0.00,weatherlink.com 1.10,2013-03-25 22:31:00,
2013-03-25 18:46:00,35.9,28.0,29.68,North,360,3.0,-999.0,74,-99.99,,,0.00,weatherlink.com 1.10,2013-03-25 22:46:00,
2013-03-25 19:01:00,35.6,28.0,29.68,ENE,63,1.0,-999.0,75,-99.99,,,0.00,weatherlink.com 1.10,2013-03-25 23:01:00,
2013-03-25 19:16:00,35.4,29.0,29.69,NNE,18,1.0,-999.0,76,-99.99,,,0.00,weatherlink.com 1.10,2013-03-25 23:16:00,
2013-03-25 19:31:00,35.2,28.0,29.70,NNE,31,2.0,-999.0,76,-99.99,,,0.00,weatherlink.com 1.10,2013-03-25 23:31:00,
2013-03-25 19:46:00,35.0,28.0,29.70,NE,42,5.0,-999.0,75,-99.99,,,0.00,weatherlink.com 1.10,2013-03-25 23:46:00,
2013-03-25 20:01:00,34.6,27.0,29.71,NNE,14,0.0,-999.0,75,-99.99,,,0.00,weatherlink.com 1.10,2013-03-26 00:01:00,
2013-03-25 20:16:00,34.4,27.0,29.71,NNE,26,1.0,-999.0,75,-99.99,,,0.00,weatherlink.com 1.10,2013-03-26 00:16:00,
2013-03-25 20:46:00,33.9,27.0,29.72,NNE,23,0.0,-999.0,76,-99.99,,,0.00,weatherlink.com 1.10,2013-03-26 00:46:00,
2013-03-25 21:01:00,33.5,27.0,29.72,NNE,22,0.0,-999.0,77,-99.99,,,0.00,weatherlink.com 1.10,2013-03-26 01:01:00,
2013-03-25 21:16:00,32.9,27.0,29.72,NNE,23,0.0,-999.0,78,-99.99,,,0.00,weatherlink.com 1.10,2013-03-26 01:16:00,
2013-03-25 21:46:00,31.7,26.0,29.73,NNE,23,0.0,-999.0,80,-99.99,,,0.00,weatherlink.com 1.10,2013-03-26 01:46:00,
2013-03-25 22:01:00,31.2,26.0,29.73,NNE,23,0.0,-999.0,81,-99.99,,,0.00,weatherlink.com 1.10,2013-03-26 02:01:00,
2013-03-25 22:16:00,30.9,26.0,29.73,NNE,22,0.0,-999.0,82,-99.99,,,0.00,weatherlink.com 1.10,2013-03-26 02:16:00,
2013-03-25 22:31:00,30.9,26.0,29.73,NNE,22,0.0,-999.0,83,-99.99,,,0.00,weatherlink.com 1.10,2013-03-26 02:31:00,
2013-03-25 22:46:00,31.1,27.0,29.73,NNE,22,0.0,-999.0,83,-99.99,,,0.00,weatherlink.com 1.10,2013-03-26 02:46:00,
2013-03-25 23:01:00,31.3,27.0,29.73,NNE,23,0.0,-999.0,84,-99.99,,,0.00,weatherlink.com 1.10,2013-03-26 03:01:00,
2013-03-25 23:16:00,31.5,27.0,29.73,NNE,23,0.0,-999.0,84,-99.99,,,0.00,weatherlink.com 1.10,2013-03-26 03:16:00,
2013-03-25 23:31:00,31.6,27.0,29.73,NNE,23,0.0,-999.0,84,-99.99,,,0.00,weatherlink.com 1.10,2013-03-26 03:31:00,
2013-03-25 23:46:00,31.7,27.0,29.74,NNE,22,0.0,-999.0,84,-99.99,,,0.00,weatherlink.com 1.10,2013-03-26 03:46:00,